Theta_e
350 350 350 350 351 351 351 351 351 350 351 351 349 348 350 352 352 353 354 351 347 345 346 347 349 349 347 342 337 339 339 340 342 343 343 345 346 348 347 345 345 345 346 344 344 344 345 344 342 344 346 343 341 341 340 341 342 344 348 344 342 345 345
348 349 350 350 350 351 351 351 352 352 352 352 349 346 348 350 351 353 353 353 349 348 347 347 347 348 346 341 337 338 338 340 341 341 343 345 344 345 347 347 347 346 345 345 345 345 346 344 340 341 345 346 345 344 341 342 342 345 350 347 343 344 343
346 347 349 349 349 350 351 351 352 352 352 353 350 347 347 347 350 353 354 353 351 350 350 350 348 346 346 343 340 338 338 340 342 341 342 345 343 343 346 346 347 346 345 345 346 346 345 344 343 342 345 348 350 348 345 345 345 346 347 345 344 346 344
346 348 348 349 350 349 349 350 351 351 352 353 352 350 348 347 348 349 351 353 352 352 353 352 350 349 348 346 342 340 339 340 343 345 345 347 346 347 348 346 345 347 347 346 347 346 346 345 346 345 346 348 350 351 349 348 349 350 348 344 345 349 348
347 348 348 348 349 349 349 348 348 350 350 352 352 352 351 350 348 346 347 351 353 352 353 353 353 352 351 349 346 343 342 342 343 346 347 348 348 348 349 348 347 347 348 348 348 348 347 347 348 349 349 348 349 350 350 349 349 351 349 346 349 353 352
346 347 348 348 349 348 348 347 347 348 348 350 351 351 352 352 351 348 348 350 352 352 352 353 353 353 352 352 351 348 345 344 344 345 346 348 348 348 348 349 349 348 349 348 349 349 349 349 349 351 352 351 350 351 352 352 351 352 352 351 352 354 353
347 347 347 347 347 347 347 346 346 347 347 348 349 350 351 352 352 351 350 350 351 352 352 352 352 353 352 352 352 351 348 346 345 345 347 348 348 348 348 348 349 348 349 348 349 349 349 350 351 352 352 351 351 351 352 353 353 353 354 354 354 353 352
347 347 347 346 346 346 345 345 345 346 347 347 347 348 350 351 351 352 351 351 351 351 351 352 352 352 352 352 352 352 350 348 347 348 348 348 349 349 349 349 349 349 348 349 349 349 349 350 351 351 352 352 351 351 352 353 352 352 354 354 354 354 352
346 346 346 345 344 344 344 344 345 346 346 347 347 348 348 350 351 351 351 352 351 350 350 351 352 351 352 353 353 352 351 349 348 348 349 349 349 349 349 349 349 349 348 347 347 348 349 350 350 351 352 351 352 352 352 352 352 352 353 354 354 355 354
346 345 345 344 343 343 343 344 344 345 346 346 347 347 348 349 350 351 351 351 351 350 348 348 350 352 352 353 353 353 352 350 348 347 347 349 348 349 349 348 348 348 348 346 346 347 348 349 349 351 352 351 351 351 350 351 351 352 353 354 354 354 355
346 344 344 342 342 342 342 343 345 345 346 346 346 347 348 348 349 350 350 350 351 351 349 347 347 349 351 353 353 353 352 352 350 346 346 347 348 348 349 348 347 348 348 347 345 345 347 348 349 350 351 351 350 351 350 350 350 351 352 353 354 354 354
345 344 342 341 340 341 342 343 345 345 345 345 346 346 347 347 348 350 350 350 350 351 351 349 347 347 348 350 352 354 353 353 351 349 347 347 346 346 347 347 347 347 348 348 347 346 346 349 349 350 351 350 349 351 350 349 349 350 349 350 353 353 353
343 343 341 340 340 340 342 343 344 345 344 344 344 345 345 346 347 348 349 350 350 350 351 351 350 349 347 346 350 352 354 353 353 352 350 348 347 346 345 346 347 347 347 347 348 347 347 348 350 351 351 351 349 349 350 350 348 346 345 347 349 351 352
343 343 342 341 340 340 342 343 343 343 342 342 343 343 344 345 345 346 347 349 350 350 350 350 351 351 349 348 348 350 351 351 353 354 353 352 351 349 348 347 346 346 347 347 347 347 347 347 348 350 351 351 349 348 350 351 348 345 344 345 348 351 353
344 343 342 340 340 341 342 342 341 341 340 341 342 343 343 344 344 345 345 347 349 350 350 350 350 350 350 350 350 350 350 350 351 352 352 353 352 352 351 350 348 347 346 347 347 348 347 347 347 348 349 350 349 349 349 348 348 349 348 349 351 354 355
343 342 341 340 340 341 341 341 340 339 340 340 341 342 343 344 344 344 344 346 347 349 350 349 349 350 350 350 351 351 351 350 350 350 349 349 349 349 350 351 351 350 348 347 348 348 348 348 347 347 347 348 349 349 347 345 346 347 348 350 353 353 353
342 340 340 340 341 340 340 339 339 338 339 340 340 340 342 343 344 344 344 345 345 347 349 349 348 349 350 350 350 350 350 350 350 349 348 348 347 347 348 349 351 351 349 346 345 344 344 345 347 347 347 347 347 348 348 347 346 344 342 347 351 351 351
341 340 340 340 340 339 339 339 339 339 338 339 340 340 341 342 343 344 344 345 345 345 347 349 349 348 349 349 349 349 349 349 349 348 349 349 348 348 349 348 349 349 349 348 344 341 339 341 344 347 347 347 347 347 349 350 348 343 341 347 351 350 349
339 339 339 339 339 338 338 338 338 339 339 340 340 340 341 342 342 343 344 344 345 345 346 347 349 349 349 348 348 349 349 349 349 350 350 350 350 350 349 349 349 348 348 350 347 342 339 340 343 346 348 348 348 349 350 351 348 342 341 346 349 349 349
339 339 339 339 339 337 336 337 338 338 339 339 339 340 341 342 342 342 343 344 345 346 346 347 348 349 349 348 348 349 349 349 350 350 350 349 350 352 351 350 350 348 349 351 348 343 340 340 342 344 345 346 348 350 352 350 345 341 343 347 349 349 349
339 339 339 338 338 336 336 337 337 338 338 338 339 340 341 341 342 343 344 345 345 346 348 348 348 348 349 349 348 349 349 349 349 350 350 349 349 351 352 350 350 349 350 351 350 346 343 342 342 343 342 344 348 352 353 348 344 344 345 348 350 349 350
339 338 338 337 336 335 336 336 337 338 338 338 340 340 341 342 342 342 344 345 345 346 348 349 349 348 349 348 348 348 349 350 349 349 350 350 349 351 351 350 349 350 351 350 350 349 347 345 344 345 343 342 346 351 352 347 346 347 347 348 350 349 349
339 338 337 336 334 334 335 335 337 338 338 339 340 340 341 341 341 342 343 344 344 346 347 348 349 349 349 348 348 348 348 349 349 349 349 349 350 351 351 350 350 350 350 350 349 350 351 349 348 347 346 345 346 351 352 349 348 350 349 349 349 348 349
338 337 336 333 333 334 334 335 337 338 338 339 339 340 340 340 340 342 343 342 342 343 344 346 347 348 348 348 348 347 346 346 346 347 347 348 349 350 350 351 351 350 350 350 350 349 351 352 350 349 348 347 348 351 352 350 350 350 350 349 349 348 349
337 336 333 332 333 334 334 335 337 337 338 339 338 339 340 339 340 341 342 342 341 342 343 344 345 346 348 348 348 347 347 346 345 346 346 347 348 349 349 351 351 351 350 350 351 351 351 351 350 349 349 349 349 350 350 349 349 349 349 349 348 348 349
336 333 331 331 332 334 334 335 336 337 337 337 337 338 339 339 339 339 340 341 341 341 342 342 343 344 345 347 347 347 347 347 347 347 347 347 347 347 347 349 350 351 351 350 350 350 350 350 349 350 350 349 349 349 349 348 348 348 350 350 349 349 349
333 331 331 331 333 334 334 335 335 336 335 335 336 337 338 339 339 338 339 339 339 340 341 341 342 342 343 344 345 346 347 347 347 347 347 347 347 347 347 348 348 349 349 349 348 348 349 350 349 349 348 347 347 347 347 348 349 349 349 349 349 349 349
331 330 331 332 334 334 334 334 334 333 333 333 334 335 336 337 338 338 338 338 339 340 341 341 341 341 341 343 343 344 345 344 345 345 345 345 345 346 346 346 347 347 347 347 347 348 348 349 349 348 347 346 346 346 347 348 349 349 349 348 348 347 347
331 331 331 332 333 332 332 331 330 330 330 331 332 333 334 336 337 337 338 338 339 340 341 341 341 341 341 342 342 342 342 342 341 341 342 342 343 344 345 345 344 344 345 346 346 345 345 346 347 346 345 346 346 347 347 347 346 346 346 345 345 345 344
331 330 328 328 329 328 327 326 325 326 327 329 331 332 333 334 336 336 337 338 338 339 340 341 341 341 341 341 341 342 343 342 342 342 342 342 343 343 343 342 341 341 342 344 344 344 343 343 344 344 344 344 344 343 343 343 343 343 343 343 343 343 343
331 328 325 324 323 322 321 321 321 322 325 328 329 330 330 332 333 333 334 334 336 337 338 339 340 340 340 341 342 342 342 341 341 341 341 341 341 342 341 341 340 340 340 341 342 342 342 341 341 341 341 341 341 340 341 341 342 343 343 343 342 342 341
332 329 327 325 324 320 317 316 317 319 323 325 325 325 326 326 325 324 326 329 332 334 336 337 338 339 339 339 339 339 339 339 339 338 338 338 339 340 339 339 340 340 339 338 339 339 339 339 339 339 339 339 339 339 340 340 340 340 340 339 339 337 336
332 331 329 329 326 322 318 316 315 317 318 317 316 318 320 319 317 316 319 324 327 330 333 335 335 337 337 338 338 337 337 337 338 337 337 337 337 337 337 337 337 337 336 335 335 336 337 337 337 338 338 337 338 338 338 338 337 337 336 336 335 332 331
331 331 330 330 327 323 318 314 312 312 311 310 311 313 314 313 312 311 312 314 315 319 324 327 328 329 329 329 331 332 333 333 334 334 334 333 333 332 331 331 330 330 331 332 333 335 336 336 336 336 336 336 336 337 337 336 335 334 332 330 329 326 325
331 330 330 330 328 323 317 312 308 307 308 308 309 309 309 308 308 307 307 307 307 308 312 314 315 317 317 317 318 319 322 324 325 325 325 324 324 325 326 327 327 327 329 331 333 335 336 337 337 336 336 336 336 336 335 334 332 330 327 326 326 325 324
331 330 329 330 328 323 317 312 310 308 308 308 309 309 308 309 309 308 307 307 307 306 307 307 307 309 310 312 311 311 312 314 316 317 317 318 320 322 325 328 329 330 331 332 333 335 336 337 337 336 335 335 334 333 332 330 328 327 326 327 327 327 326
331 330 329 329 327 322 317 314 313 312 312 312 314 314 312 313 314 313 311 310 310 309 308 308 307 306 307 307 307 307 308 310 311 313 315 318 322 324 326 328 330 331 332 332 333 335 335 335 335 334 333 332 332 330 330 329 328 328 328 328 328 327 326
331 329 327 327 326 322 319 317 316 316 316 317 318 319 319 320 321 321 322 321 319 317 315 314 312 310 309 307 305 305 306 306 309 313 317 321 323 325 326 327 329 330 332 332 332 333 333 333 333 332 332 331 331 330 330 330 330 330 329 328 327 326 325
Wind_Speed
5 5 4 2 1 4 5 7 8 10 11 12 14 13 10 10 11 11 12 12 11 12 14 13 11 11 11 13 13 14 14 15 15 16 16 16 15 14 14 15 15 15 14 13 13 13 14 14 14 13 13 13 13 13 13 12 12 11 9 10 9 9 9
5 5 4 3 2 0 3 5 7 9 10 11 14 15 13 11 11 12 13 12 12 13 15 15 14 12 11 12 14 14 15 16 16 16 17 17 17 17 15 14 14 15 15 13 12 12 13 14 14 14 13 13 13 13 13 12 12 11 10 10 10 9 9
4 4 4 3 3 1 1 3 5 7 8 10 12 15 15 14 12 13 13 13 12 12 14 16 17 15 13 12 15 16 16 17 17 17 17 16 17 17 16 16 15 14 14 14 13 12 12 12 13 14 14 13 12 13 13 12 12 11 11 11 10 9 9
4 4 3 3 3 2 2 2 3 5 6 8 11 14 15 16 16 15 14 14 14 13 14 16 18 17 16 14 15 17 19 19 18 18 17 16 16 15 15 16 16 15 13 13 13 12 12 12 13 14 14 13 13 13 13 13 12 11 11 11 10 9 10
4 4 3 4 4 4 3 3 4 4 5 6 9 11 12 14 17 19 17 15 15 15 14 16 17 17 18 17 16 17 20 20 19 19 18 17 16 16 16 16 16 15 14 13 13 13 14 13 13 13 13 14 13 13 13 13 12 12 12 12 10 9 9
3 4 4 5 5 5 5 5 5 5 6 6 7 9 10 12 14 18 18 16 16 16 15 16 16 17 18 18 17 17 19 21 22 21 19 19 18 17 17 16 16 15 15 14 13 13 14 14 13 13 13 13 12 12 12 12 12 12 12 12 11 11 10
4 4 4 5 5 6 6 6 6 6 6 7 7 7 8 10 12 15 17 17 17 17 16 17 17 17 18 19 18 18 19 20 22 22 21 20 20 19 18 17 17 16 15 15 14 14 14 14 14 14 13 12 12 12 12 12 12 12 11 12 12 12 11
3 4 4 6 6 7 7 7 7 7 7 6 7 7 7 8 10 13 15 16 17 18 17 16 17 18 18 18 19 19 19 19 20 21 21 21 21 21 19 18 18 18 17 16 16 15 15 15 14 14 14 13 12 12 12 12 13 12 11 12 12 12 12
2 3 4 6 7 7 7 8 8 7 7 7 7 7 7 8 9 11 13 14 16 19 20 18 17 17 18 18 19 19 20 20 20 20 21 21 22 21 21 20 19 19 19 19 17 17 17 16 15 14 14 14 13 13 13 13 13 12 12 12 12 12 11
2 3 4 5 7 8 8 8 8 7 7 7 7 7 7 7 8 10 12 13 15 19 24 23 19 18 17 18 19 19 19 20 20 21 21 22 22 22 21 21 20 19 19 19 18 17 17 17 16 15 16 16 15 14 14 14 14 13 13 12 12 12 11
2 3 4 6 7 8 8 8 8 7 7 7 7 7 7 8 8 8 10 13 14 16 21 25 24 21 19 18 19 19 20 20 20 21 22 22 22 22 22 21 20 20 19 19 19 18 17 17 17 17 17 17 15 14 14 14 14 15 15 13 12 12 12
3 3 5 6 7 8 8 8 8 8 7 7 7 7 7 8 7 7 9 12 13 14 17 21 24 23 22 21 19 19 19 20 20 21 22 22 22 22 22 22 21 20 20 19 19 19 18 17 17 16 17 17 15 14 14 15 15 16 17 15 13 13 13
3 4 4 6 7 8 8 8 8 8 8 8 8 8 7 7 7 7 9 10 11 13 14 17 20 22 24 24 22 21 20 20 20 21 21 21 21 21 21 21 21 21 20 20 19 19 19 18 17 16 16 17 16 15 14 15 17 17 18 17 15 14 14
4 4 4 6 7 8 8 9 9 9 9 9 9 8 8 7 7 8 8 9 10 12 14 15 17 20 22 22 22 22 23 23 21 20 21 20 20 21 21 20 21 21 20 20 20 20 19 19 18 17 16 16 15 15 14 15 17 17 17 17 15 14 13
3 4 5 6 7 8 8 9 10 10 10 10 9 9 9 9 8 8 8 8 9 11 13 15 17 19 21 22 21 20 22 24 23 22 23 22 22 22 21 20 21 21 21 21 20 20 19 19 19 18 17 16 15 15 16 16 16 15 15 14 13 13 13
3 5 6 7 8 8 9 10 10 10 10 10 9 9 9 9 9 9 9 8 8 10 12 14 16 18 20 23 23 20 20 22 23 24 25 25 25 25 23 22 21 21 22 22 22 21 21 20 20 19 19 17 16 16 16 17 17 17 17 16 14 15 16
3 5 7 8 8 9 10 11 11 11 11 11 11 10 9 9 10 10 9 9 9 9 11 13 16 17 18 21 23 23 22 22 23 25 25 25 25 25 24 23 21 22 23 23 23 23 23 22 21 20 19 18 17 17 16 16 18 20 19 18 17 17 17
3 5 7 8 8 9 10 11 11 11 11 11 10 9 8 9 10 9 9 9 10 10 11 12 15 16 18 20 21 23 23 22 23 25 25 24 24 24 24 23 22 23 23 22 23 24 24 23 22 20 20 18 17 17 16 17 20 22 19 18 18 17 16
4 5 6 7 8 9 11 11 11 11 10 10 10 9 9 9 10 9 9 10 10 10 11 12 14 16 18 19 20 21 22 22 23 24 24 24 23 23 23 24 24 24 22 20 22 24 24 23 21 20 20 18 17 17 15 18 23 22 19 18 18 17 14
4 5 6 7 8 9 11 10 10 10 9 9 9 9 10 10 10 9 9 9 9 9 10 12 14 16 18 19 19 19 20 22 24 24 25 25 24 22 23 24 24 23 21 20 21 22 23 23 21 21 20 19 18 16 16 20 24 22 19 19 19 17 15
4 5 6 7 8 9 10 10 10 10 9 9 10 10 10 10 10 9 8 8 8 7 9 12 14 15 17 19 19 18 18 20 23 24 24 24 24 23 23 23 23 23 21 20 20 21 22 22 21 21 20 19 17 15 18 23 23 21 20 20 19 18 17
4 5 5 6 8 9 9 9 9 9 9 9 10 9 9 9 8 8 7 7 6 6 7 9 11 13 17 19 19 18 18 19 23 24 22 22 23 22 22 23 23 23 23 22 20 20 20 21 21 20 20 20 19 17 19 23 22 21 21 21 20 19 17
3 4 5 6 8 8 8 8 8 8 8 8 9 9 9 9 9 8 8 7 6 6 6 6 7 10 13 17 18 18 17 17 19 20 20 21 21 21 21 21 21 21 23 23 20 20 20 20 20 20 19 21 20 17 19 24 23 21 22 21 20 19 17
2 3 5 6 7 8 8 7 7 7 7 7 7 8 9 10 10 8 7 7 6 6 5 4 6 8 10 13 15 16 16 16 16 15 15 17 18 18 18 18 19 20 21 20 19 19 20 21 22 22 21 22 21 19 21 25 23 21 20 19 18 18 16
2 3 4 5 7 8 7 7 6 7 7 7 8 8 8 9 9 7 6 6 5 5 4 1 3 6 9 11 13 13 13 15 16 14 13 13 14 15 15 14 15 17 18 18 19 19 19 20 21 22 22 22 22 21 22 23 21 19 18 17 16 17 17
2 3 3 4 6 6 6 6 6 6 7 8 8 9 8 8 8 7 6 5 5 4 5 4 3 1 4 7 10 11 11 12 13 12 12 12 13 15 15 14 14 15 16 18 19 19 19 20 21 21 21 20 19 19 20 20 19 18 17 16 16 16 15
1 1 3 4 4 4 4 5 6 7 8 8 9 8 8 9 8 7 6 6 6 7 8 7 6 3 0 2 6 8 9 11 12 12 11 11 11 13 14 15 16 17 17 18 18 19 21 22 21 20 18 16 15 16 17 17 17 17 16 15 14 13 12
1 1 2 3 3 3 4 5 6 7 8 9 9 8 8 7 6 7 9 10 10 12 12 11 9 7 5 4 3 3 3 6 8 8 8 7 9 11 14 17 20 20 20 19 19 21 24 24 23 20 17 15 15 15 15 15 15 15 15 14 12 12 12
3 3 2 3 3 4 4 5 6 8 9 9 9 8 8 8 8 10 12 13 13 13 13 13 10 9 10 10 9 8 8 8 8 8 7 4 4 7 10 13 15 16 17 17 17 19 20 20 19 17 15 13 12 12 12 12 12 12 12 11 11 12 12
6 5 5 4 4 4 5 6 8 9 10 10 9 9 10 11 13 15 14 14 13 12 12 12 10 9 12 14 13 12 12 12 12 12 11 10 7 6 6 8 9 9 10 12 11 11 12 12 12 12 11 10 8 7 6 5 5 5 6 7 10 12 12
8 8 8 7 7 7 7 8 10 10 12 12 11 11 12 13 15 16 14 12 11 12 13 12 10 11 15 16 16 15 13 14 15 16 15 14 12 13 15 15 14 12 10 10 12 12 11 11 11 11 11 11 11 11 11 10 10 10 11 11 13 13 14
8 8 8 8 9 9 9 10 11 12 13 13 12 13 14 14 15 16 14 12 12 14 15 15 13 14 16 16 16 17 16 17 19 20 19 18 16 16 16 15 14 13 12 11 12 13 15 15 14 13 14 16 18 18 18 18 19 20 20 20 20 20 20
9 9 8 8 8 9 10 11 13 14 14 14 14 14 14 13 13 15 15 13 13 16 19 19 18 18 18 17 17 17 17 18 19 19 19 20 20 19 19 19 18 18 17 17 17 19 20 20 19 19 21 22 23 23 24 25 25 25 25 24 24 24 23
10 10 9 8 8 9 11 13 15 16 16 16 16 16 16 14 13 13 15 15 16 18 20 20 21 21 21 20 19 19 19 19 20 20 21 22 23 23 24 23 23 22 22 22 22 23 24 24 25 26 25 25 24 25 27 27 27 27 26 25 25 26 25
10 10 10 9 9 10 12 14 16 18 18 18 18 18 19 18 16 15 17 18 18 20 21 21 22 22 21 21 21 22 22 22 23 24 25 26 26 27 27 26 25 24 24 23 23 23 23 26 28 28 27 27 27 28 29 29 28 27 27 26 26 26 25
11 10 10 10 10 11 13 15 16 18 19 20 20 19 20 20 18 18 19 20 20 22 22 22 23 22 21 21 21 23 24 25 26 27 28 29 29 29 29 28 27 26 27 26 26 24 24 26 30 30 30 31 32 31 30 30 29 27 26 25 24 23 23
11 11 11 11 11 12 13 15 16 17 19 20 19 19 20 21 20 18 19 20 21 22 23 24 24 24 23 22 22 23 25 26 26 27 28 29 30 30 30 30 29 29 29 29 29 29 28 30 32 32 32 33 34 33 30 29 28 26 24 23 22 21 21
12 12 11 11 11 12 14 15 15 16 17 18 17 17 18 19 18 16 15 17 18 20 22 23 24 25 25 25 24 23 23 24 25 26 27 29 30 30 30 31 31 31 31 31 31 32 32 32 32 32 31 30 30 30 29 27 25 23 22 21 21 20 20
Wind_Direction
57 62 63 70 204 232 237 236 234 232 232 236 234 228 221 219 219 217 222 237 242 236 239 239 230 224 214 205 207 205 202 207 210 205 201 200 199 200 203 203 203 204 206 213 216 217 219 219 217 217 226 236 240 240 242 246 249 249 252 257 253 247 249
53 52 58 56 51 261 250 248 244 239 236 241 244 239 232 225 222 222 226 238 246 241 239 240 239 237 231 216 209 207 204 204 210 210 205 203 201 199 200 200 204 209 210 210 212 216 219 222 223 221 224 232 236 238 240 242 245 241 240 251 250 248 252
47 37 41 41 39 30 322 276 262 256 249 247 247 243 241 239 231 225 229 238 247 246 236 235 238 241 240 229 215 210 208 205 208 212 209 207 206 203 203 204 205 209 212 211 212 216 219 222 224 223 223 225 228 235 238 239 242 241 239 245 247 247 251
43 32 27 25 30 25 7 326 290 279 268 258 254 250 247 245 239 234 235 238 242 242 233 231 234 235 235 235 225 215 212 208 207 209 210 210 210 208 209 211 209 206 209 212 214 216 216 216 219 222 223 223 222 227 234 234 234 236 240 244 244 244 249
43 37 29 19 20 14 5 341 314 301 284 269 257 252 249 248 245 242 240 239 239 237 231 229 230 228 228 232 229 222 217 214 210 208 209 211 212 211 211 213 212 210 211 212 215 218 216 213 214 219 225 229 228 228 233 235 232 232 238 241 238 240 248
38 38 30 18 12 3 358 340 324 311 295 286 272 258 251 246 244 244 241 238 238 237 233 230 226 224 225 225 223 221 220 218 216 212 209 210 212 212 212 212 212 213 214 215 216 219 218 215 214 218 223 228 230 230 232 235 234 233 238 240 236 235 239
30 30 22 13 7 357 353 342 330 320 307 296 284 275 264 251 245 243 239 234 234 236 233 230 226 222 223 223 221 219 218 218 218 217 214 211 211 212 213 214 213 213 215 216 216 216 217 217 217 220 223 224 227 229 230 232 232 230 233 240 241 241 240
29 24 14 6 360 352 348 340 330 322 315 304 295 285 271 258 250 246 242 234 228 228 229 229 226 223 222 223 223 221 217 216 216 217 216 213 213 212 211 214 215 215 215 216 217 216 216 218 219 221 222 223 225 228 229 233 236 234 233 238 244 245 245
31 18 8 359 352 346 340 334 328 324 317 312 311 300 280 263 252 247 247 241 229 221 221 223 223 223 223 223 223 223 220 216 214 215 215 215 215 213 212 213 214 216 217 218 219 218 217 219 220 222 222 222 224 228 229 232 235 234 233 238 242 244 247
26 10 359 353 347 338 332 331 330 327 320 314 315 312 302 282 259 248 247 247 240 228 223 221 218 217 221 224 226 225 223 220 216 215 216 215 215 216 215 214 214 216 218 219 220 220 220 221 219 221 225 225 226 230 232 233 233 231 233 238 242 245 248
9 4 353 348 342 334 329 329 330 329 323 318 316 314 311 298 277 260 250 246 245 238 231 225 219 215 216 222 227 227 226 223 218 216 217 216 217 217 216 216 215 215 217 218 219 220 221 222 221 221 226 228 229 233 236 235 233 231 232 235 240 246 250
355 357 351 345 339 335 331 326 329 331 324 319 316 314 312 307 295 273 256 248 244 241 238 231 224 219 216 217 223 228 227 224 220 217 217 218 219 218 218 218 217 216 216 215 216 219 220 222 222 222 225 228 229 230 235 237 234 234 235 237 240 247 251
336 337 343 343 336 334 332 326 327 326 321 317 313 311 311 311 308 288 266 256 247 241 239 233 228 224 221 219 220 224 225 224 222 219 218 218 220 220 220 220 219 219 218 217 216 217 218 221 222 223 225 230 232 232 236 239 240 239 240 240 241 245 249
317 326 336 337 330 330 331 329 327 323 319 316 310 311 312 306 305 300 282 266 254 243 236 232 229 227 225 223 221 221 222 222 222 221 220 219 218 220 220 221 221 221 220 221 219 218 219 220 222 225 228 231 234 235 237 241 245 247 246 246 246 245 247
307 326 330 329 328 330 331 329 326 322 319 317 312 310 310 305 301 298 291 279 264 251 239 232 229 227 226 225 224 222 220 220 221 222 224 224 223 224 224 222 223 223 221 222 222 222 222 221 222 225 228 231 233 235 238 241 243 245 243 242 244 244 245
305 323 324 324 326 328 331 330 325 322 320 318 313 305 305 307 302 294 291 284 270 258 248 238 231 227 226 226 224 221 218 218 220 224 228 231 231 231 231 228 226 226 227 226 225 224 223 222 222 223 225 229 233 235 240 243 242 241 238 235 239 246 252
307 316 316 320 323 325 329 329 325 324 325 321 315 308 306 306 300 293 291 284 270 258 252 245 236 229 226 226 225 222 216 214 219 224 228 230 232 233 234 233 230 231 234 236 234 231 230 229 227 226 226 230 234 235 238 241 242 243 242 239 241 250 258
304 310 311 314 319 324 328 329 327 327 327 324 319 315 307 300 298 297 294 289 279 261 249 244 239 233 229 227 225 222 218 214 217 222 225 226 228 230 233 235 234 232 234 236 237 234 233 235 233 230 229 229 232 234 234 236 240 243 243 241 244 250 256
295 303 307 309 317 324 327 329 328 328 329 328 326 321 312 306 307 306 302 299 291 272 255 245 239 236 233 230 226 222 220 216 215 217 220 222 223 225 229 233 233 230 228 229 232 231 232 234 234 232 231 229 230 233 232 235 241 244 242 240 242 246 251
290 297 302 310 318 322 324 326 326 328 329 328 326 323 321 318 313 310 309 303 293 278 265 254 244 237 234 232 229 226 224 220 216 215 215 219 221 221 224 228 230 228 224 224 227 228 228 232 233 233 234 232 231 233 233 237 242 244 242 240 240 244 252
290 298 303 314 318 319 322 325 328 330 328 327 328 330 334 328 317 315 313 300 290 280 265 257 252 243 234 229 227 227 226 224 222 217 212 215 219 218 220 225 226 223 221 221 225 226 225 227 230 231 233 232 228 227 232 239 244 246 243 242 243 248 258
282 294 305 317 319 319 323 326 329 329 326 329 333 337 339 334 327 331 333 318 308 299 271 255 253 247 236 228 224 222 221 221 223 220 213 212 216 216 218 222 222 221 222 222 222 224 224 225 227 228 229 229 224 222 233 242 245 245 245 245 249 255 262
268 297 315 321 323 323 323 327 329 325 327 336 341 340 340 342 347 355 355 350 343 330 302 260 242 240 234 229 226 223 218 216 220 221 215 213 216 216 216 219 220 221 224 224 224 224 221 219 221 221 222 226 223 220 233 241 242 245 248 249 253 258 261
280 316 322 325 332 328 321 329 334 332 340 347 345 345 346 348 354 359 358 4 10 2 340 276 235 222 218 221 225 225 220 217 219 220 217 216 218 217 215 217 219 221 224 225 224 223 220 218 220 220 220 223 221 218 231 241 244 247 251 251 254 256 257
307 319 322 332 339 330 322 333 344 350 357 352 347 356 355 348 348 346 350 5 13 18 23 351 236 218 210 210 213 216 218 220 221 220 219 218 218 217 214 214 217 219 220 220 218 217 219 221 223 225 225 227 228 229 237 245 248 249 250 250 251 255 257
295 313 334 339 333 326 329 346 360 6 6 358 356 0 356 351 353 351 356 11 15 27 50 50 32 267 228 214 206 204 204 209 211 211 216 221 221 220 218 217 215 211 212 219 221 220 224 224 224 227 228 231 234 237 241 245 246 246 248 249 252 257 260
286 345 9 347 335 340 353 7 18 19 13 8 5 5 1 1 8 14 21 29 36 47 52 46 39 41 52 212 209 204 200 206 210 209 213 222 227 228 228 227 223 216 217 225 228 228 230 227 220 217 220 228 236 240 242 244 245 246 250 253 254 258 259
114 61 33 7 8 21 21 26 32 31 28 21 15 16 14 9 19 37 45 50 54 58 62 61 59 64 78 105 154 177 183 199 205 202 205 221 236 242 241 236 232 227 223 225 229 232 230 222 214 212 217 226 231 233 235 238 241 246 251 255 257 255 249
101 90 62 36 31 33 36 45 45 42 42 36 26 29 36 44 58 62 61 65 66 67 72 75 71 70 78 88 99 97 89 100 124 136 139 152 213 244 244 234 227 224 221 218 222 226 219 206 201 204 205 206 208 214 226 238 245 251 253 250 243 232 222
98 89 77 66 59 57 57 58 57 55 56 51 44 45 51 60 71 73 70 70 70 73 80 82 77 79 84 85 88 91 93 99 107 111 111 110 111 113 126 141 149 166 189 192 189 196 193 178 173 175 172 173 178 184 197 211 219 221 213 200 197 195 192
98 89 82 76 72 70 69 67 67 69 68 63 59 61 64 68 75 76 72 69 72 79 84 85 85 88 89 90 93 96 98 99 98 97 100 106 111 112 114 120 124 127 139 151 154 159 159 146 137 138 137 133 131 128 124 125 126 125 128 140 150 152 149
105 96 89 80 73 73 75 75 73 75 78 75 73 74 75 76 81 82 74 66 73 84 87 87 89 90 88 89 93 98 99 98 96 94 96 98 101 102 104 107 110 113 117 128 137 137 132 125 123 127 127 122 119 117 115 115 113 111 114 120 124 124 125
117 112 100 86 77 78 82 80 77 77 80 81 81 82 79 74 78 85 82 77 83 93 96 95 93 92 89 88 88 93 95 96 97 99 100 99 98 97 98 99 100 102 105 110 117 119 119 120 122 124 121 117 116 116 117 116 114 114 116 117 118 119 118
127 123 114 97 85 86 91 90 86 85 85 83 82 84 85 82 79 84 89 90 95 99 101 100 97 94 92 92 94 97 98 100 103 104 104 103 102 100 99 98 98 97 98 101 108 113 115 117 118 118 116 115 115 116 116 114 114 114 115 114 113 111 108
134 132 126 113 99 95 99 100 96 93 91 89 86 85 88 88 85 85 88 90 94 97 98 98 99 97 93 91 92 95 98 101 105 106 105 104 103 101 99 98 97 98 100 102 106 111 117 121 121 119 117 115 115 114 114 112 111 110 110 109 107 105 104
138 136 135 128 114 104 104 106 104 100 98 96 93 92 92 90 87 86 88 89 92 95 96 97 98 99 99 98 98 100 101 103 105 106 107 106 105 104 101 99 98 98 99 101 104 107 114 119 119 117 116 115 114 113 112 111 110 108 107 106 105 103 100
143 139 141 139 128 117 111 108 106 103 101 100 99 97 95 93 89 87 87 89 91 93 94 95 95 95 97 99 102 106 108 108 108 108 108 108 107 107 106 104 102 100 99 100 103 107 111 114 114 114 115 115 114 113 112 111 110 110 109 109 107 104 99
148 144 144 144 139 132 124 117 110 103 98 99 103 103 100 98 96 92 88 88 90 90 90 91 92 93 94 95 98 103 108 110 111 111 111 110 109 108 108 107 106 103 101 102 104 107 109 111 112 112 113 113 114 115 115 114 114 114 113 111 109 106 102